Volver al catálogo

FENGYUN 1C DEB

ActivoPO
NORAD 30814·DEBRIS·🇨🇳 China

Lanzado May 10, 1999 desde Taiyuan Satellite Launch Center

Loading…

Próximos Pases (próximas 24 horas)

TLE

ActualizadoSource: Space-Track

Época: Sep 14, 2026, 12:14 UTC

1 30814U 99025AUY 26257.51009648  .00007246  00000-0  12973-2 0  9999
2 30814  99.0913 267.2545 0030218 107.6542  45.0286 14.66881160 17777

Sigue FENGYUN 1C DEB en tiempo real con AllMySat

Download on the App Store